Time,TemperatureF,DewpointF,PressureIn,WindDirection,WindDirectionDegrees,WindSpeedMPH,WindSpeedGustMPH,Humidity,HourlyPrecipIn,Conditions,Clouds,dailyrainin,SoftwareType,DateUTC
2013-03-09 00:02:00,23.0,21.0,30.32,SW,219,2.0,5.0,92,0.00,,,0.00,,2013-03-09 05:02:00,
2013-03-09 00:12:00,23.0,21.0,30.32,SW,219,2.0,5.0,92,0.00,,,0.00,,2013-03-09 05:12:00,
2013-03-09 00:22:00,23.0,21.0,30.32,North,0,0.0,4.0,93,0.00,,,0.00,,2013-03-09 05:22:00,
2013-03-09 00:32:00,23.0,22.0,30.29,North,0,0.0,5.0,94,0.00,,,0.00,,2013-03-09 05:32:00,
2013-03-09 00:43:00,23.0,22.0,30.29,North,0,0.0,5.0,94,0.00,,,0.00,,2013-03-09 05:43:00,
2013-03-09 00:52:00,23.0,21.0,30.29,SW,222,1.0,3.0,93,0.00,,,0.00,,2013-03-09 05:52:00,
2013-03-09 01:02:00,22.0,20.0,30.29,SW,226,2.0,3.0,92,0.00,,,0.00,,2013-03-09 06:02:00,
2013-03-09 01:11:00,22.0,20.0,30.30,SW,219,1.0,4.0,93,0.00,,,0.00,,2013-03-09 06:11:00,
2013-03-09 01:22:00,22.0,20.0,30.30,SW,219,1.0,4.0,93,0.00,,,0.00,,2013-03-09 06:22:00,
2013-03-09 01:32:00,21.0,19.0,30.30,SW,217,2.0,3.0,93,0.00,,,0.00,,2013-03-09 06:32:00,
2013-03-09 01:42:00,21.0,19.0,30.30,SW,217,2.0,3.0,93,0.00,,,0.00,,2013-03-09 06:42:00,
2013-03-09 01:52:00,22.0,21.0,30.30,WSW,238,1.0,5.0,95,0.00,,,0.00,,2013-03-09 06:52:00,
2013-03-09 02:01:00,21.0,20.0,30.30,North,0,0.0,2.0,94,0.00,,,0.00,,2013-03-09 07:01:00,
2013-03-09 02:11:00,21.0,20.0,30.30,North,0,0.0,2.0,94,0.00,,,0.00,,2013-03-09 07:11:00,
2013-03-09 02:21:00,21.0,20.0,30.30,North,0,0.0,0.0,94,0.00,,,0.00,,2013-03-09 07:21:00,
2013-03-09 02:32:00,21.0,20.0,30.29,North,0,0.0,2.0,94,0.00,,,0.00,,2013-03-09 07:32:00,
2013-03-09 02:42:00,21.0,20.0,30.29,North,0,0.0,2.0,94,0.00,,,0.00,,2013-03-09 07:42:00,
2013-03-09 02:52:00,20.0,19.0,30.29,North,0,0.0,1.0,94,0.00,,,0.00,,2013-03-09 07:52:00,
2013-03-09 03:01:00,21.0,20.0,30.27,North,0,0.0,1.0,95,0.00,,,0.00,,2013-03-09 08:01:00,
2013-03-09 03:11:00,21.0,20.0,30.27,North,0,0.0,1.0,95,0.00,,,0.00,,2013-03-09 08:11:00,
2013-03-09 03:22:00,20.0,19.0,30.27,North,0,0.0,0.0,95,0.00,,,0.00,,2013-03-09 08:22:00,
2013-03-09 03:32:00,20.0,19.0,30.27,North,0,0.0,2.0,94,0.00,,,0.00,,2013-03-09 08:32:00,
2013-03-09 03:42:00,20.0,19.0,30.27,North,0,0.0,2.0,94,0.00,,,0.00,,2013-03-09 08:42:00,
2013-03-09 03:52:00,20.0,19.0,30.27,North,0,0.0,2.0,94,0.00,,,0.00,,2013-03-09 08:52:00,
2013-03-09 04:02:00,18.0,16.0,30.26,North,0,0.0,3.0,93,0.00,,,0.00,,2013-03-09 09:02:00,
2013-03-09 04:12:00,18.0,16.0,30.26,North,0,0.0,3.0,93,0.00,,,0.00,,2013-03-09 09:12:00,
2013-03-09 04:21:00,18.0,17.0,30.26,North,0,0.0,3.0,94,0.00,,,0.00,,2013-03-09 09:21:00,
2013-03-09 04:32:00,17.0,16.0,30.27,North,0,0.0,0.0,94,0.00,,,0.00,,2013-03-09 09:32:00,
2013-03-09 04:42:00,17.0,16.0,30.27,North,0,0.0,0.0,94,0.00,,,0.00,,2013-03-09 09:42:00,
2013-03-09 04:52:00,17.0,16.0,30.27,North,0,0.0,0.0,94,0.00,,,0.00,,2013-03-09 09:52:00,
2013-03-09 05:01:00,17.0,16.0,30.27,North,0,0.0,0.0,95,0.00,,,0.00,,2013-03-09 10:01:00,
2013-03-09 05:11:00,17.0,16.0,30.27,North,0,0.0,0.0,95,0.00,,,0.00,,2013-03-09 10:11:00,
2013-03-09 05:21:00,17.0,16.0,30.28,North,0,0.0,0.0,94,0.00,,,0.00,,2013-03-09 10:21:00,
2013-03-09 05:32:00,17.0,16.0,30.28,North,0,0.0,0.0,94,0.00,,,0.00,,2013-03-09 10:32:00,
2013-03-09 05:42:00,17.0,16.0,30.28,North,0,0.0,0.0,94,0.00,,,0.00,,2013-03-09 10:42:00,
2013-03-09 05:52:00,17.0,16.0,30.28,North,0,0.0,0.0,94,0.00,,,0.00,,2013-03-09 10:52:00,
2013-03-09 06:01:00,14.0,12.0,30.28,North,0,0.0,0.0,93,0.00,,,0.00,,2013-03-09 11:01:00,
2013-03-09 06:11:00,14.0,12.0,30.28,North,0,0.0,0.0,93,0.00,,,0.00,,2013-03-09 11:11:00,
2013-03-09 06:22:00,14.0,12.0,30.28,North,0,0.0,0.0,93,0.00,,,0.00,,2013-03-09 11:22:00,
2013-03-09 06:32:00,15.0,14.0,30.28,North,0,0.0,2.0,94,0.00,,,0.00,,2013-03-09 11:32:00,
2013-03-09 06:42:00,15.0,14.0,30.28,North,0,0.0,2.0,94,0.00,,,0.00,,2013-03-09 11:42:00,
2013-03-09 06:52:00,12.0,10.0,30.28,North,0,0.0,1.0,91,0.00,,,0.00,,2013-03-09 11:52:00,
2013-03-09 07:02:00,12.0,10.0,30.29,North,0,0.0,0.0,93,0.00,,,0.00,,2013-03-09 12:02:00,
2013-03-09 07:11:00,12.0,10.0,30.29,North,0,0.0,0.0,93,0.00,,,0.00,,2013-03-09 12:11:00,
2013-03-09 07:21:00,12.0,10.0,30.29,North,0,0.0,0.0,93,0.00,,,0.00,,2013-03-09 12:21:00,
2013-03-09 07:32:00,13.0,12.0,30.30,North,0,0.0,2.0,94,0.00,,,0.00,,2013-03-09 12:32:00,
2013-03-09 07:42:00,13.0,12.0,30.30,North,0,0.0,2.0,94,0.00,,,0.00,,2013-03-09 12:42:00,
2013-03-09 07:52:00,13.0,12.0,30.31,North,0,0.0,0.0,94,0.00,,,0.00,,2013-03-09 12:52:00,
2013-03-09 08:02:00,14.0,13.0,30.31,ESE,110,1.0,2.0,94,0.00,,,0.00,,2013-03-09 13:02:00,
2013-03-09 08:11:00,14.0,13.0,30.31,ESE,110,1.0,2.0,94,0.00,,,0.00,,2013-03-09 13:11:00,
2013-03-09 08:21:00,15.0,14.0,30.32,North,0,0.0,2.0,94,0.00,,,0.00,,2013-03-09 13:21:00,
2013-03-09 08:32:00,16.0,15.0,30.32,North,0,0.0,1.0,94,0.00,,,0.00,,2013-03-09 13:32:00,
2013-03-09 08:42:00,16.0,15.0,30.32,North,0,0.0,1.0,94,0.00,,,0.00,,2013-03-09 13:42:00,
2013-03-09 08:52:00,20.0,19.0,30.32,North,0,0.0,1.0,95,0.00,,,0.00,,2013-03-09 13:52:00,
2013-03-09 09:01:00,22.0,20.0,30.33,North,0,0.0,0.0,93,0.00,,,0.00,,2013-03-09 14:01:00,
2013-03-09 09:11:00,22.0,20.0,30.33,North,0,0.0,0.0,93,0.00,,,0.00,,2013-03-09 14:11:00,
2013-03-09 09:21:00,22.0,20.0,30.33,North,0,0.0,0.0,93,0.00,,,0.00,,2013-03-09 14:21:00,
2013-03-09 09:32:00,21.0,19.0,30.33,North,0,0.0,0.0,90,0.01,,,0.01,,2013-03-09 14:32:00,
2013-03-09 09:42:00,21.0,19.0,30.33,North,0,0.0,0.0,90,0.01,,,0.01,,2013-03-09 14:42:00,
2013-03-09 09:52:00,24.0,22.0,30.32,North,0,0.0,2.0,90,0.01,,,0.01,,2013-03-09 14:52:00,
2013-03-09 10:02:00,28.0,24.0,30.32,North,0,0.0,0.0,86,0.01,,,0.01,,2013-03-09 15:02:00,
2013-03-09 10:12:00,28.0,24.0,30.32,North,0,0.0,0.0,86,0.01,,,0.01,,2013-03-09 15:12:00,
2013-03-09 10:22:00,29.0,24.0,30.32,NW,308,1.0,3.0,81,0.01,,,0.02,,2013-03-09 15:22:00,
2013-03-09 10:32:00,31.0,25.0,30.31,SSW,194,1.0,2.0,79,0.02,,,0.03,,2013-03-09 15:32:00,
2013-03-09 10:42:00,31.0,25.0,30.31,SSW,194,1.0,2.0,79,0.02,,,0.03,,2013-03-09 15:42:00,
2013-03-09 10:52:00,31.0,25.0,30.31,North,0,0.0,3.0,78,0.02,,,0.03,,2013-03-09 15:52:00,
2013-03-09 11:01:00,32.0,25.0,30.31,ESE,111,1.0,2.0,75,0.02,,,0.03,,2013-03-09 16:01:00,
2013-03-09 11:11:00,32.0,25.0,30.31,ESE,111,1.0,2.0,75,0.02,,,0.03,,2013-03-09 16:11:00,
2013-03-09 11:21:00,33.0,26.0,30.30,North,0,0.0,3.0,74,0.02,,,0.04,,2013-03-09 16:21:00,
2013-03-09 11:32:00,36.0,28.0,30.30,SW,225,1.0,3.0,72,0.01,,,0.04,,2013-03-09 16:32:00,
2013-03-09 11:42:00,36.0,28.0,30.30,SW,225,1.0,3.0,72,0.01,,,0.04,,2013-03-09 16:42:00,
2013-03-09 11:52:00,36.0,27.0,30.30,North,0,0.0,3.0,70,0.02,,,0.05,,2013-03-09 16:52:00,
2013-03-09 12:01:00,39.0,28.0,30.29,North,0,0.0,3.0,65,0.02,,,0.05,,2013-03-09 17:01:00,
2013-03-09 12:11:00,39.0,28.0,30.29,North,0,0.0,3.0,65,0.02,,,0.05,,2013-03-09 17:11:00,
2013-03-09 12:22:00,40.0,28.0,30.29,North,0,0.0,3.0,62,0.01,,,0.05,,2013-03-09 17:22:00,
2013-03-09 12:32:00,41.0,28.0,30.28,North,0,0.0,2.0,60,0.01,,,0.05,,2013-03-09 17:32:00,
2013-03-09 12:42:00,41.0,28.0,30.28,North,0,0.0,2.0,60,0.01,,,0.05,,2013-03-09 17:42:00,
2013-03-09 12:52:00,42.0,28.0,30.28,North,0,0.0,2.0,57,0.00,,,0.05,,2013-03-09 17:52:00,
2013-03-09 13:02:00,44.0,28.0,30.27,North,0,0.0,2.0,53,0.00,,,0.05,,2013-03-09 18:02:00,
2013-03-09 13:11:00,44.0,28.0,30.27,North,0,0.0,2.0,53,0.00,,,0.05,,2013-03-09 18:11:00,
2013-03-09 13:21:00,45.0,28.0,30.27,North,0,0.0,1.0,52,0.00,,,0.05,,2013-03-09 18:21:00,
2013-03-09 13:32:00,45.0,28.0,30.27,North,0,0.0,1.0,52,0.00,,,0.05,,2013-03-09 18:32:00,
2013-03-09 13:42:00,45.0,28.0,30.27,North,0,0.0,1.0,52,0.00,,,0.05,,2013-03-09 18:42:00,
2013-03-09 13:52:00,45.0,24.0,30.25,North,0,0.0,4.0,43,0.00,,,0.05,,2013-03-09 18:52:00,
2013-03-09 14:02:00,45.0,23.0,30.25,NW,306,1.0,3.0,42,0.00,,,0.05,,2013-03-09 19:02:00,
2013-03-09 14:12:00,45.0,23.0,30.25,NW,306,1.0,3.0,42,0.00,,,0.05,,2013-03-09 19:12:00,
2013-03-09 14:22:00,46.0,22.0,30.25,NW,326,1.0,4.0,39,0.00,,,0.05,,2013-03-09 19:22:00,
2013-03-09 14:32:00,47.0,23.0,30.24,North,0,0.0,3.0,38,0.00,,,0.05,,2013-03-09 19:32:00,
2013-03-09 14:42:00,47.0,23.0,30.24,North,0,0.0,3.0,38,0.00,,,0.05,,2013-03-09 19:42:00,
2013-03-09 14:52:00,48.0,22.0,30.24,WSW,248,1.0,3.0,36,0.00,,,0.05,,2013-03-09 19:52:00,
2013-03-09 15:01:00,48.0,22.0,30.23,East,81,1.0,3.0,36,0.00,,,0.05,,2013-03-09 20:01:00,
2013-03-09 15:11:00,48.0,22.0,30.23,East,81,1.0,3.0,36,0.00,,,0.05,,2013-03-09 20:11:00,
2013-03-09 15:22:00,48.0,21.0,30.23,North,0,0.0,4.0,34,0.00,,,0.05,,2013-03-09 20:22:00,
2013-03-09 15:32:00,49.0,21.0,30.23,SSE,159,1.0,4.0,33,0.00,,,0.05,,2013-03-09 20:32:00,
2013-03-09 15:42:00,49.0,21.0,30.23,SSE,159,1.0,4.0,33,0.00,,,0.05,,2013-03-09 20:42:00,
2013-03-09 15:52:00,49.0,23.0,30.23,North,0,0.0,4.0,35,0.00,,,0.05,,2013-03-09 20:52:00,
2013-03-09 16:02:00,49.0,20.0,30.22,ESE,114,3.0,5.0,32,0.00,,,0.05,,2013-03-09 21:02:00,
2013-03-09 16:12:00,49.0,20.0,30.22,ESE,114,3.0,5.0,32,0.00,,,0.05,,2013-03-09 21:12:00,
2013-03-09 16:22:00,49.0,22.0,30.22,North,0,0.0,5.0,34,0.00,,,0.05,,2013-03-09 21:22:00,
2013-03-09 16:32:00,49.0,20.0,30.22,North,0,0.0,3.0,31,0.00,,,0.05,,2013-03-09 21:32:00,
2013-03-09 16:42:00,49.0,20.0,30.22,North,0,0.0,3.0,31,0.00,,,0.05,,2013-03-09 21:42:00,
2013-03-09 16:52:00,49.0,17.0,30.24,North,0,0.0,3.0,28,0.00,,,0.05,,2013-03-09 21:52:00,
2013-03-09 17:01:00,49.0,18.0,30.24,SE,143,1.0,7.0,29,0.00,,,0.05,,2013-03-09 22:01:00,
2013-03-09 17:11:00,49.0,18.0,30.24,SE,143,1.0,7.0,29,0.00,,,0.05,,2013-03-09 22:11:00,
2013-03-09 17:21:00,49.0,18.0,30.24,SE,143,1.0,7.0,29,0.00,,,0.05,,2013-03-09 22:21:00,
2013-03-09 17:32:00,48.0,21.0,30.23,North,0,0.0,3.0,34,0.00,,,0.05,,2013-03-09 22:32:00,
2013-03-09 17:42:00,48.0,21.0,30.23,North,0,0.0,3.0,34,0.00,,,0.05,,2013-03-09 22:42:00,
2013-03-09 17:52:00,47.0,21.0,30.23,North,0,0.0,4.0,36,0.00,,,0.05,,2013-03-09 22:52:00,
2013-03-09 18:01:00,46.0,20.0,30.23,North,0,0.0,3.0,35,0.00,,,0.05,,2013-03-09 23:01:00,
2013-03-09 18:11:00,46.0,20.0,30.23,North,0,0.0,3.0,35,0.00,,,0.05,,2013-03-09 23:11:00,
2013-03-09 18:22:00,46.0,20.0,30.23,North,0,0.0,3.0,35,0.00,,,0.05,,2013-03-09 23:22:00,
2013-03-09 18:32:00,44.0,19.0,30.24,North,0,0.0,1.0,37,0.00,,,0.05,,2013-03-09 23:32:00,
2013-03-09 18:42:00,44.0,19.0,30.24,North,0,0.0,1.0,37,0.00,,,0.05,,2013-03-09 23:42:00,
2013-03-09 18:52:00,44.0,20.0,30.24,North,0,0.0,1.0,38,0.00,,,0.05,,2013-03-09 23:52:00,
2013-03-09 19:02:00,43.0,19.0,30.24,North,0,0.0,3.0,38,0.00,,,0.05,,2013-03-10 00:02:00,
2013-03-09 19:11:00,43.0,19.0,30.24,North,0,0.0,3.0,38,0.00,,,0.05,,2013-03-10 00:11:00,
2013-03-09 19:22:00,43.0,19.0,30.24,North,0,0.0,3.0,38,0.00,,,0.05,,2013-03-10 00:22:00,
2013-03-09 19:32:00,43.0,19.0,30.24,North,0,0.0,3.0,38,0.00,,,0.05,,2013-03-10 00:32:00,
2013-03-09 19:42:00,43.0,19.0,30.24,North,0,0.0,3.0,38,0.00,,,0.05,,2013-03-10 00:42:00,
2013-03-09 20:01:00,41.0,20.0,30.24,North,0,0.0,1.0,43,0.00,,,0.05,,2013-03-10 01:01:00,
2013-03-09 20:11:00,41.0,20.0,30.24,North,0,0.0,1.0,43,0.00,,,0.05,,2013-03-10 01:11:00,
2013-03-09 20:22:00,41.0,20.0,30.24,North,0,0.0,1.0,43,0.00,,,0.05,,2013-03-10 01:22:00,
2013-03-09 20:32:00,41.0,20.0,30.24,North,0,0.0,2.0,42,0.00,,,0.05,,2013-03-10 01:32:00,
2013-03-09 20:42:00,41.0,20.0,30.24,North,0,0.0,2.0,42,0.00,,,0.05,,2013-03-10 01:42:00,
2013-03-09 20:52:00,41.0,20.0,30.24,North,0,0.0,2.0,42,0.00,,,0.05,,2013-03-10 01:52:00,
2013-03-09 21:01:00,41.0,19.0,30.22,North,0,0.0,2.0,40,0.00,,,0.05,,2013-03-10 02:01:00,
2013-03-09 21:11:00,41.0,19.0,30.22,North,0,0.0,2.0,40,0.00,,,0.05,,2013-03-10 02:11:00,
2013-03-09 21:22:00,41.0,19.0,30.23,SW,214,1.0,4.0,40,0.00,,,0.05,,2013-03-10 02:22:00,
2013-03-09 21:32:00,41.0,17.0,30.23,North,0,0.0,3.0,38,0.00,,,0.05,,2013-03-10 02:32:00,
2013-03-09 21:42:00,41.0,17.0,30.23,North,0,0.0,3.0,38,0.00,,,0.05,,2013-03-10 02:42:00,
2013-03-09 21:52:00,41.0,17.0,30.23,SSW,211,1.0,3.0,38,0.00,,,0.05,,2013-03-10 02:52:00,
2013-03-09 22:02:00,40.0,17.0,30.23,North,0,0.0,2.0,39,0.00,,,0.05,,2013-03-10 03:02:00,
2013-03-09 22:11:00,40.0,18.0,30.23,North,0,0.0,2.0,40,0.00,,,0.05,,2013-03-10 03:11:00,
2013-03-09 22:22:00,40.0,18.0,30.23,North,0,0.0,2.0,40,0.00,,,0.05,,2013-03-10 03:22:00,
2013-03-09 22:32:00,40.0,18.0,30.23,North,0,0.0,2.0,40,0.00,,,0.05,,2013-03-10 03:32:00,
2013-03-09 22:42:00,40.0,18.0,30.23,North,0,0.0,2.0,40,0.00,,,0.05,,2013-03-10 03:42:00,
2013-03-09 22:52:00,40.0,18.0,30.23,North,0,0.0,2.0,40,0.00,,,0.05,,2013-03-10 03:52:00,
2013-03-09 23:22:00,41.0,18.0,30.22,North,0,0.0,4.0,39,0.00,,,0.05,,2013-03-10 04:22:00,
2013-03-09 23:32:00,41.0,18.0,30.22,North,0,0.0,2.0,39,0.00,,,0.05,,2013-03-10 04:32:00,
2013-03-09 23:42:00,41.0,18.0,30.22,North,0,0.0,2.0,39,0.00,,,0.05,,2013-03-10 04:42:00,
2013-03-09 23:52:00,40.0,18.0,30.22,North,0,0.0,2.0,40,0.00,,,0.05,,2013-03-10 04:52:00,